When you browse on this site, cookies collect data to enhance your experience and personalize the content and advertising you see.
Visit our Privacy Policy to learn more. By continuing to use the site, you agree to this use of cookies and data.
  • In Spain
  • List of Countries
  • For 7 days
  • Water Temperature
  • Weather Map
  • Weather Widgets
  • user-avatar
    Login

    Hourly Weather Krakow

    Today, 4 June, Thursday

    Time Temperature Precipitation Wind Pressure Humidity
    00:00 +10°C° 0 mm 1 mps 734 mmHg 88%
    01:00 +9°C° 0 mm 1 mps 734 mmHg 88%
    02:00 +9°C° 0 mm 1 mps 733 mmHg 88%
    03:00 +9°C° 0 mm 1 mps 733 mmHg 87%
    04:00 +9°C° 0 mm 1 mps 733 mmHg 87%
    05:00 +11°C° 0 mm 1 mps 733 mmHg 84%
    06:00 +13°C° 0 mm 1 mps 732 mmHg 80%
    07:00 +15°C° 0 mm 1 mps 732 mmHg 76%
    08:00 +16°C° 0 mm 2 mps 732 mmHg 70%
    09:00 +18°C° 0 mm 2 mps 732 mmHg 65%
    10:00 +19°C° 0 mm 2 mps 732 mmHg 59%
    11:00 +20°C° 0.1 mm 2 mps 731 mmHg 60%
    12:00 +20°C° 0.1 mm 2 mps 731 mmHg 61%
    13:00 +21°C° 0 mm 2 mps 731 mmHg 60%
    14:00 +21°C° 0.3 mm 2 mps 731 mmHg 62%
    15:00 +21°C° 0.3 mm 2 mps 730 mmHg 65%
    16:00 +22°C° 0.3 mm 1 mps 730 mmHg 67%
    17:00 +21°C° 0.2 mm 1 mps 730 mmHg 73%
    18:00 +19°C° 0.2 mm 2 mps 729 mmHg 78%
    19:00 +17°C° 0.2 mm 2 mps 729 mmHg 84%
    20:00 +17°C° 0.2 mm 2 mps 729 mmHg 86%
    21:00 +16°C° 0.2 mm 2 mps 729 mmHg 87%
    22:00 +16°C° 0.2 mm 3 mps 728 mmHg 89%
    23:00 +15°C° 0 mm 2 mps 728 mmHg 89%

    Tomorrow, 5 June, Friday

    Time Temperature Precipitation Wind Pressure Humidity
    00:00 +15°C° 0 mm 2 mps 728 mmHg 90%
    01:00 +15°C° 0 mm 2 mps 728 mmHg 90%
    02:00 +15°C° 0 mm 2 mps 728 mmHg 90%
    03:00 +14°C° 0 mm 3 mps 727 mmHg 89%
    04:00 +14°C° 0 mm 3 mps 727 mmHg 88%
    05:00 +16°C° 0 mm 3 mps 727 mmHg 84%
    06:00 +17°C° 0 mm 3 mps 728 mmHg 81%
    07:00 +19°C° 0 mm 3 mps 728 mmHg 77%
    08:00 +19°C° 0 mm 3 mps 728 mmHg 75%
    09:00 +20°C° 0 mm 3 mps 729 mmHg 73%
    10:00 +21°C° 0 mm 3 mps 729 mmHg 72%
    11:00 +21°C° 0.4 mm 4 mps 729 mmHg 72%
    12:00 +21°C° 0.4 mm 5 mps 729 mmHg 72%
    13:00 +21°C° 0.4 mm 6 mps 730 mmHg 72%
    14:00 +20°C° 0.2 mm 4 mps 730 mmHg 77%
    15:00 +18°C° 0.2 mm 3 mps 730 mmHg 82%
    16:00 +17°C° 0.2 mm 2 mps 730 mmHg 87%
    17:00 +16°C° 0.9 mm 2 mps 730 mmHg 89%
    18:00 +16°C° 0.9 mm 2 mps 730 mmHg 92%
    19:00 +15°C° 0.9 mm 2 mps 730 mmHg 94%
    20:00 +15°C° 0.9 mm 2 mps 731 mmHg 94%
    21:00 +15°C° 0.9 mm 2 mps 732 mmHg 94%
    22:00 +15°C° 0.9 mm 2 mps 732 mmHg 93%
    23:00 +14°C° 0 mm 2 mps 733 mmHg 93%

    Day after tomorrow, 6 June, Saturday

    Time Temperature Precipitation Wind Pressure Humidity
    00:00 +13°C° 0 mm 2 mps 733 mmHg 92%
    01:00 +12°C° 0 mm 3 mps 734 mmHg 92%
    02:00 +12°C° 0 mm 3 mps 734 mmHg 91%
    03:00 +11°C° 0 mm 3 mps 735 mmHg 90%
    04:00 +11°C° 0 mm 4 mps 735 mmHg 89%
    05:00 +13°C° 0 mm 4 mps 736 mmHg 84%
    06:00 +15°C° 0 mm 4 mps 736 mmHg 80%
    07:00 +16°C° 0 mm 5 mps 737 mmHg 75%
    08:00 +19°C° 0 mm 5 mps 737 mmHg 69%
    09:00 +20°C° 0 mm 4 mps 737 mmHg 63%
    10:00 +22°C° 0 mm 4 mps 737 mmHg 58%
    11:00 +22°C° 0 mm 4 mps 737 mmHg 56%
    12:00 +24°C° 0 mm 3 mps 737 mmHg 54%
    13:00 +25°C° 0 mm 2 mps 737 mmHg 53%
    14:00 +24°C° 0 mm 2 mps 737 mmHg 57%
    15:00 +24°C° 0 mm 2 mps 737 mmHg 62%
    16:00 +24°C° 0 mm 2 mps 737 mmHg 67%
    17:00 +21°C° 0.1 mm 2 mps 737 mmHg 73%
    18:00 +20°C° 0.1 mm 2 mps 737 mmHg 79%
    19:00 +19°C° 0.1 mm 2 mps 737 mmHg 84%
    20:00 +18°C° 0 mm 2 mps 737 mmHg 87%
    21:00 +17°C° 0 mm 2 mps 737 mmHg 90%
    22:00 +16°C° 0 mm 1 mps 737 mmHg 92%
    23:00 +16°C° 0 mm 1 mps 737 mmHg 92%

    7 June, Sunday

    Time Temperature Precipitation Wind Pressure Humidity
    00:00 +15°C° 0 mm 1 mps 737 mmHg 92%
    01:00 +15°C° 0 mm 1 mps 737 mmHg 92%
    02:00 +15°C° 0 mm 1 mps 737 mmHg 92%
    03:00 +15°C° 0 mm 1 mps 736 mmHg 91%
    04:00 +15°C° 0 mm 1 mps 736 mmHg 90%
    05:00 +16°C° 0.1 mm 1 mps 736 mmHg 88%
    06:00 +18°C° 0.1 mm 1 mps 737 mmHg 87%
    07:00 +19°C° 0.1 mm 1 mps 737 mmHg 85%
    08:00 +20°C° 0.1 mm 1 mps 737 mmHg 81%
    09:00 +22°C° 0.1 mm 1 mps 737 mmHg 77%
    10:00 +23°C° 0.1 mm 1 mps 738 mmHg 73%
    11:00 +23°C° 0.4 mm 1 mps 738 mmHg 76%
    12:00 +23°C° 0.4 mm 1 mps 738 mmHg 79%
    13:00 +22°C° 0.4 mm 1 mps 738 mmHg 82%
    14:00 +22°C° 0.6 mm 1 mps 737 mmHg 83%
    15:00 +22°C° 0.6 mm 1 mps 737 mmHg 85%
    16:00 +22°C° 0.6 mm 1 mps 737 mmHg 86%
    17:00 +21°C° 0.2 mm 1 mps 737 mmHg 89%
    18:00 +20°C° 0.2 mm 1 mps 737 mmHg 91%
    19:00 +20°C° 0.2 mm 1 mps 738 mmHg 94%
    20:00 +19°C° 0.7 mm 1 mps 738 mmHg 94%
    21:00 +19°C° 0.7 mm 1 mps 738 mmHg 95%
    22:00 +18°C° 0.7 mm 1 mps 738 mmHg 95%
    23:00 +18°C° 0.7 mm 1 mps 738 mmHg 96%

    8 June, Monday

    Time Temperature Precipitation Wind Pressure Humidity
    00:00 +18°C° 0.7 mm 1 mps 738 mmHg 96%
    01:00 +16°C° 0.7 mm 1 mps 738 mmHg 97%
    02:00 +16°C° 0.6 mm 1 mps 738 mmHg 97%
    03:00 +16°C° 0.6 mm 1 mps 738 mmHg 97%
    04:00 +16°C° 0.6 mm 2 mps 737 mmHg 98%
    05:00 +18°C° 0 mm 1 mps 737 mmHg 96%
    06:00 +19°C° 0 mm 1 mps 738 mmHg 95%
    07:00 +17°C° 0 mm 0 mps 738 mmHg 93%
    08:00 +20°C° 0 mm 1 mps 738 mmHg 88%
    09:00 +22°C° 0 mm 1 mps 738 mmHg 83%
    10:00 +23°C° 0 mm 1 mps 738 mmHg 77%
    11:00 +24°C° 0.5 mm 1 mps 738 mmHg 75%
    12:00 +24°C° 0.5 mm 1 mps 737 mmHg 73%
    13:00 +25°C° 0.5 mm 1 mps 737 mmHg 71%
    14:00 +24°C° 1.8 mm 2 mps 737 mmHg 77%
    15:00 +22°C° 1.8 mm 3 mps 737 mmHg 82%
    16:00 +21°C° 1.8 mm 3 mps 737 mmHg 87%
    17:00 +20°C° 0.2 mm 3 mps 737 mmHg 90%
    18:00 +19°C° 0.2 mm 3 mps 737 mmHg 92%
    19:00 +18°C° 0.2 mm 3 mps 738 mmHg 95%
    20:00 +17°C° 0 mm 3 mps 738 mmHg 95%
    21:00 +16°C° 0 mm 3 mps 738 mmHg 96%
    22:00 +15°C° 0 mm 2 mps 738 mmHg 97%
    23:00 +15°C° 0 mm 2 mps 739 mmHg 97%

    9 June, Tuesday

    Time Temperature Precipitation Wind Pressure Humidity
    00:00 +15°C° 0 mm 2 mps 739 mmHg 97%
    01:00 +15°C° 0 mm 2 mps 739 mmHg 97%
    02:00 +15°C° 0 mm 2 mps 739 mmHg 96%
    03:00 +15°C° 0 mm 1 mps 739 mmHg 96%
    04:00 +16°C° 0 mm 1 mps 739 mmHg 96%
    05:00 +16°C° 0 mm 1 mps 739 mmHg 95%
    06:00 +16°C° 0 mm 1 mps 739 mmHg 93%
    07:00 +18°C° 0 mm 1 mps 740 mmHg 92%
    08:00 +19°C° 0 mm 1 mps 740 mmHg 89%
    09:00 +19°C° 0 mm 1 mps 740 mmHg 86%
    10:00 +20°C° 0 mm 1 mps 740 mmHg 84%
    11:00 +20°C° 0.1 mm 1 mps 740 mmHg 82%
    12:00 +21°C° 0.1 mm 1 mps 740 mmHg 79%
    13:00 +22°C° 0.1 mm 1 mps 740 mmHg 77%
    14:00 +21°C° 0.1 mm 2 mps 740 mmHg 79%
    15:00 +21°C° 0.1 mm 2 mps 740 mmHg 80%
    16:00 +21°C° 0.1 mm 2 mps 740 mmHg 81%
    17:00 +21°C° 0.2 mm 1 mps 740 mmHg 84%
    18:00 +21°C° 0.2 mm 1 mps 740 mmHg 87%
    19:00 +20°C° 0.2 mm 1 mps 740 mmHg 90%
    20:00 +19°C° 0 mm 1 mps 740 mmHg 91%
    21:00 +19°C° 0 mm 1 mps 740 mmHg 92%
    22:00 +18°C° 0 mm 1 mps 740 mmHg 92%
    23:00 +18°C° 0 mm 1 mps 740 mmHg 93%
    Show more